Location: Newark
(34.0111°N, 88.4892°W)
Time: 09:18:46
(UTC+00:00)

CUBESAT XI-V - Visible Passes

Search period start: 06 June 2020 00:00
Search period end: 16 June 2020 00:00
Orbit: 670 x 692 km, 98.0° (Epoch: 05 June)

Date Brightness Start Highest point End Pass type
(mag) Time Alt. Az. Time Alt. Az. Time Alt. Az.
06 Jun ? 08:18:48 73° SW 08:19:01 74° W 08:23:40 10° NNW visible
07 Jun ? 07:16:52 21° E 07:18:04 23° ENE 07:21:42 10° NNE visible
07 Jun ? 08:55:18 28° W 08:55:18 28° W 08:59:13 10° NW visible
08 Jun ? 07:53:22 52° ESE 07:53:57 57° ENE 07:58:31 10° N visible
08 Jun ? 09:31:48 11° W 09:31:48 11° W 09:32:49 10° WNW visible
09 Jun ? 06:51:26 10° E 06:53:14 13° ENE 06:55:12 10° NE visible
09 Jun ? 08:29:52 54° WSW 08:30:01 55° W 08:34:36 10° NNW visible
10 Jun ? 07:27:56 27° E 07:28:58 30° ENE 07:33:01 10° N visible
10 Jun ? 09:06:22 21° W 09:06:22 21° W 09:09:50 10° NW visible
11 Jun ? 08:04:26 68° SE 08:04:55 77° ENE 08:09:36 10° N visible
12 Jun ? 07:02:31 14° E 07:04:06 17° ENE 07:07:01 10° NNE visible
12 Jun ? 08:40:57 40° WSW 08:41:03 40° W 08:45:27 10° NNW visible
13 Jun ? 07:39:02 36° E 07:39:55 40° ENE 07:44:16 10° N visible
13 Jun ? 09:17:28 16° W 09:17:28 16° W 09:20:14 10° NW visible
14 Jun ? 08:15:32 73° SSW 08:15:54 80° WSW 08:20:36 10° NNW visible
15 Jun ? 07:13:37 19° E 07:14:59 22° ENE 07:18:32 10° NNE visible
15 Jun ? 08:52:03 30° W 08:52:05 30° W 08:56:13 10° NW visible
